Stations météo

réclame
Mon MeteoGroup
Porto Colom, Espagne (8309): Température de l'air & dewpoint: 14.10.2018 21:00:00 - 20.10.2018 21:00:00 (CEST)Porto Colom, Espagne (8309): Vitesse du vent & gusts: 14.10.2018 21:00:00 - 20.10.2018 21:00:00 (CEST)Porto Colom, Espagne (8309): Direction du vent: 14.10.2018 21:00:00 - 20.10.2018 21:00:00 (CEST)Porto Colom, Espagne (8309): reduced air pressure: 14.10.2018 21:00:00 - 20.10.2018 21:00:00 (CEST)Porto Colom, Espagne (8309): visibility: 14.10.2018 21:00:00 - 20.10.2018 21:00:00 (CEST)Porto Colom, Espagne (8309): Ensoleillement: 14.10.2018 21:00:00 - 20.10.2018 21:00:00 (CEST)Porto Colom, Espagne (8309): Quantités de précipitations: 14.10.2018 21:00:00 - 20.10.2018 21:00:00 (CEST)
Date & Time tt [°C] td [°C] ff [km/h] ff [knt] fx [km/h] fx [knt] dd ppp [hPa] vv [km] sd [min] rr [mm]
20.10.2018 21:00:00 - - - - - - - - - - -
20.10.2018 20:00:00 22,1 19,5 11 6 20 11 E 1020,4 0,9 0 -
20.10.2018 19:00:00 22,1 19,3 11 6 19 11 E 1019,9 0,9 0 0,0
20.10.2018 18:00:00 22,7 19,5 13 7 20 11 E 1019,8 1,0 60 0,0
20.10.2018 17:00:00 23,1 19,1 13 7 20 11 E 1019,8 1,2 60 0,0
20.10.2018 16:00:00 23,7 19,4 11 6 20 11 E 1019,8 1,2 60 0,0
20.10.2018 15:00:00 23,5 19,1 13 7 22 12 ENE 1019,9 1,3 58 0,0
20.10.2018 14:00:00 23,7 19,6 13 7 22 12 E 1020,3 1,5 57 -
20.10.2018 13:00:00 23,4 19,1 14 8 22 12 E 1020,9 1,7 60 0,0
20.10.2018 12:00:00 23,1 19,3 13 7 20 11 ENE 1020,4 2,2 60 0,0
20.10.2018 11:00:00 22,6 19,0 11 6 17 9 NE 1020,4 2,8 60 0,0
20.10.2018 10:00:00 20,7 19,0 9 5 12 6 N 1019,9 2,7 60 0,0
20.10.2018 09:00:00 18,2 17,2 8 5 11 6 N 1019,4 3,2 8 0,0
20.10.2018 08:00:00 17,7 16,7 10 5 11 6 N 1018,4 2,5 0 -
20.10.2018 07:00:00 17,7 16,7 9 5 10 5 NNW 1018,0 2,7 0 0,0
20.10.2018 06:00:00 18,2 17,2 7 4 13 7 N 1017,5 2,5 0 0,0
20.10.2018 05:00:00 18,8 17,9 11 6 14 7 NNE 1016,9 1,3 0 0,0
20.10.2018 04:00:00 18,6 17,8 8 5 11 6 N 1017,3 0,4 0 0,0
20.10.2018 03:00:00 18,4 17,4 9 5 11 6 N 1017,3 0,4 0 0,0
20.10.2018 02:00:00 18,8 17,9 5 3 10 5 NNW 1017,0 0,6 0 -
20.10.2018 01:00:00 18,4 17,2 8 4 9 5 N 1016,7 0,4 0 0,0
20.10.2018 00:00:00 18,7 17,4 6 3 8 5 N 1016,3 0,5 0 0,0
19.10.2018 23:00:00 18,9 17,5 8 4 10 6 N 1016,2 0,4 0 0,0
19.10.2018 22:00:00 19,9 18,0 4 2 10 5 N 1015,8 0,3 0 0,0
19.10.2018 21:00:00 21,7 18,5 9 5 13 7 S 1015,5 0,3 0 0,0
19.10.2018 20:00:00 - - - - - - - - - - -
19.10.2018 19:00:00 22,1 18,7 7 4 15 8 SSE 1014,3 0,4 5 0,0
19.10.2018 18:00:00 22,8 19,2 11 6 15 8 S 1013,6 0,3 50 0,0
19.10.2018 17:00:00 24,1 19,4 6 4 13 7 SSE 1013,4 0,4 60 0,0
19.10.2018 16:00:00 24,3 18,9 8 4 15 8 SSE 1013,1 0,4 60 0,0
19.10.2018 15:00:00 24,7 20,0 6 4 14 7 SSE 1013,0 0,6 59 0,0
19.10.2018 14:00:00 24,3 19,1 8 4 16 9 SSE 1013,1 0,6 51 -
19.10.2018 13:00:00 24,1 19,6 7 4 18 10 SSE 1013,2 0,4 56 0,0
19.10.2018 12:00:00 23,3 19,4 15 8 21 12 S 1012,9 0,6 60 0,0
19.10.2018 11:00:00 22,7 19,8 11 6 35 19 SSE 1012,6 0,7 14 0,0
19.10.2018 10:00:00 22,0 19,2 21 11 37 20 ESE 1012,1 0,7 6 0,2
19.10.2018 09:00:00 21,5 19,6 18 10 45 25 SE 1011,2 0,8 0 0,0
19.10.2018 08:00:00 21,0 19,1 21 11 41 22 ESE 1010,4 0,9 0 -
19.10.2018 07:00:00 19,7 18,4 20 11 41 22 ESE 1010,0 1,3 0 1,8
19.10.2018 06:00:00 20,9 18,1 16 9 26 14 SE 1009,7 1,0 0 0,2
19.10.2018 05:00:00 21,3 18,7 9 5 17 9 E 1009,4 1,0 0 0,0
19.10.2018 04:00:00 20,6 17,8 5 3 31 17 ESE 1009,2 5 0 0,0
19.10.2018 03:00:00 21,5 17,9 12 6 20 11 ESE 1009,2 1,7 0 0,0
19.10.2018 02:00:00 21,6 17,6 13 7 24 13 SE 1009,2 2,5 0 -
19.10.2018 01:00:00 21,4 17,8 13 7 26 14 SE 1009,0 2,3 0 0,0
19.10.2018 00:00:00 21,3 17,5 16 8 31 17 SE 1008,9 2,6 0 0,0
18.10.2018 23:00:00 21,3 19,2 15 8 26 14 ESE 1008,9 2,5 0 0,0
18.10.2018 22:00:00 21,0 18,9 14 7 26 14 E 1008,2 2,6 0 0,0
18.10.2018 21:00:00 20,4 18,7 10 5 32 17 NE 1007,8 4,5 0 0,0
18.10.2018 20:00:00 20,1 18,9 18 10 33 18 ENE 1007,5 0,9 0 -
18.10.2018 19:00:00 20,1 18,6 19 10 43 23 ENE 1006,7 0,9 0 0,0
18.10.2018 18:00:00 21,0 19,3 21 11 34 19 E 1006,3 1,2 0 5,4
18.10.2018 17:00:00 19,0 16,6 25 13 49 26 E 1006,9 0,9 8 9,4
18.10.2018 16:00:00 23,2 19,6 21 11 37 20 ENE 1006,6 0,4 16 0,2
18.10.2018 15:00:00 22,6 19,0 16 9 31 17 ENE 1006,8 0,5 5 0,0
18.10.2018 14:00:00 22,6 18,8 19 10 30 16 ENE 1007,4 0,5 9 -
18.10.2018 13:00:00 22,7 18,5 18 10 30 16 E 1007,8 0,6 42 0,0
18.10.2018 12:00:00 21,0 18,9 11 6 23 13 NNE 1007,9 1,0 13 0,0
18.10.2018 11:00:00 20,0 18,2 16 9 29 15 NE 1007,8 0,9 4 0,2
18.10.2018 10:00:00 19,6 18,2 11 6 29 16 ENE 1007,9 1,2 0 0,6
18.10.2018 09:00:00 19,5 18,3 14 7 26 14 NE 1007,8 1,4 0 0,4
18.10.2018 08:00:00 19,9 17,9 14 8 29 16 NE 1007,8 1,1 0 -
18.10.2018 07:00:00 20,0 18,3 16 9 38 20 ENE 1007,9 0,8 0 0,2
18.10.2018 06:00:00 20,1 18,1 11 6 20 11 NNE 1008,0 1,3 0 0,0
18.10.2018 05:00:00 19,0 17,7 11 6 17 9 N 1008,2 1,2 0 0,0
18.10.2018 04:00:00 19,0 17,3 10 6 18 10 N 1008,7 1,1 0 0,0
18.10.2018 03:00:00 19,1 17,2 11 6 18 10 NNE 1009,1 1,1 0 0,0
18.10.2018 02:00:00 18,8 17,3 12 6 17 9 N 1009,6 1,2 0 -
18.10.2018 01:00:00 18,6 17,1 11 6 16 8 N 1010,2 1,3 0 0,0
18.10.2018 00:00:00 18,6 16,9 11 6 16 9 N 1010,7 1,2 0 0,0
17.10.2018 23:00:00 18,9 17,1 8 5 15 8 NNE 1011,2 1,1 0 0,0
17.10.2018 22:00:00 18,3 16,5 10 6 16 8 N 1011,0 1,1 0 0,0
17.10.2018 21:00:00 18,7 16,6 10 5 18 10 N 1010,7 1,0 0 0,0
17.10.2018 20:00:00 19,4 16,8 11 6 24 13 N 1010,5 0,8 0 -
17.10.2018 19:00:00 20,9 16,7 14 8 29 16 NE 1010,4 0,7 9 0,0
17.10.2018 18:00:00 21,0 17,6 8 4 22 12 NNE 1010,3 0,8 0 0,0
17.10.2018 17:00:00 21,9 17,7 10 5 23 12 NE 1010,8 0,5 38 0,0
17.10.2018 16:00:00 23,2 17,2 9 5 18 10 E 1010,9 0,5 60 0,0
17.10.2018 15:00:00 23,5 16,8 9 5 17 9 E 1011,5 0,6 59 0,0
17.10.2018 14:00:00 23,0 15,8 10 5 21 12 ENE 1012,0 0,6 60 -
17.10.2018 13:00:00 22,6 15,7 14 8 24 13 ENE 1012,6 0,6 60 0,0
17.10.2018 12:00:00 22,9 16,5 12 6 23 13 ENE 1013,0 0,6 60 0,0
17.10.2018 11:00:00 22,3 16,3 11 6 22 12 NE 1013,3 0,6 60 0,0
17.10.2018 10:00:00 20,3 16,0 9 5 15 8 NNE 1013,2 0,8 46 0,0
17.10.2018 09:00:00 17,7 14,6 10 5 16 9 N 1013,3 0,8 14 0,0
17.10.2018 08:00:00 17,0 14,0 12 7 17 9 N 1013,1 0,9 0 -
17.10.2018 07:00:00 17,1 14,3 12 6 17 9 N 1013,3 0,9 0 0,0
17.10.2018 06:00:00 16,9 13,9 11 6 18 10 N 1013,2 1,1 0 0,0
17.10.2018 05:00:00 17,3 14,0 12 6 16 9 NNE 1013,3 7 0 0,0
17.10.2018 04:00:00 17,1 14,0 13 7 18 10 N 1013,8 0,8 0 0,0
17.10.2018 03:00:00 17,3 14,2 12 6 17 9 N 1014,1 0,9 0 0,0
17.10.2018 02:00:00 17,3 14,6 11 6 17 9 N 1014,8 0,8 0 -
17.10.2018 01:00:00 17,7 14,6 13 7 17 9 N 1014,8 0,8 0 0,0
17.10.2018 00:00:00 17,8 14,7 9 5 16 8 N 1015,2 0,8 0 0,0
16.10.2018 23:00:00 17,7 14,8 11 6 16 9 N 1015,3 0,8 0 0,0
16.10.2018 22:00:00 17,9 14,8 10 6 14 8 N 1015,2 0,7 0 0,0
16.10.2018 21:00:00 20,5 15,1 10 5 17 9 ENE 1014,8 0,7 0 0,0
16.10.2018 20:00:00 21,0 14,9 13 7 21 11 ENE 1014,6 0,6 0 -
16.10.2018 19:00:00 21,1 15,0 9 5 16 9 E 1014,2 0,6 0 0,0
16.10.2018 18:00:00 21,6 14,2 7 4 21 12 E 1014,1 0,6 0 0,0
16.10.2018 17:00:00 22,0 16,0 8 4 16 8 ESE 1014,0 0,5 42 0,0
16.10.2018 16:00:00 22,0 16,0 9 5 15 8 ESE 1013,8 0,4 3 0,0
16.10.2018 15:00:00 22,2 15,3 7 4 13 7 ESE 1013,8 0,8 0 0,0
16.10.2018 14:00:00 22,2 15,3 8 4 14 8 E 1014,0 0,7 36 -
16.10.2018 13:00:00 22,2 15,8 5 3 13 7 E 1014,4 1,2 60 0,0
16.10.2018 12:00:00 22,0 15,8 7 4 13 7 E 1014,0 1,2 59 0,0
16.10.2018 11:00:00 20,9 15,9 9 5 14 7 ENE 1014,1 0,9 51 0,0
16.10.2018 10:00:00 18,7 16,5 7 4 11 6 N 1013,4 3,9 22 0,2
16.10.2018 09:00:00 16,9 14,9 8 5 15 8 N 1013,2 3,8 0 0,6
16.10.2018 08:00:00 16,9 14,1 11 6 16 9 N 1012,3 2,4 0 -
16.10.2018 07:00:00 15,4 12,8 11 6 13 7 NNE 1012,2 2,2 0 0,0
16.10.2018 06:00:00 15,1 13,0 10 5 11 6 N 1011,8 3,7 0 0,0
16.10.2018 05:00:00 15,8 12,7 5 3 8 4 NNW 1011,3 3,5 0 0,0
16.10.2018 04:00:00 16,8 12,7 5 3 10 5 NW 1011,6 1,7 0 0,0
16.10.2018 03:00:00 15,6 12,5 5 3 8 4 NW 1012,0 10 0 0,0
16.10.2018 02:00:00 15,8 12,3 4 2 9 5 WNW 1012,0 20 0 -
16.10.2018 01:00:00 16,0 12,0 6 3 10 5 NNW 1012,0 20 0 0,0
16.10.2018 00:00:00 16,0 12,3 6 3 8 5 N 1011,9 20 0 0,0
15.10.2018 23:00:00 17,3 12,8 6 3 13 7 NW 1011,8 20 0 0,0
15.10.2018 22:00:00 17,8 12,2 7 4 16 9 W 1011,6 12 0 0,0
15.10.2018 21:00:00 18,5 12,2 10 5 19 10 W 1011,0 20 0 0,0
15.10.2018 20:00:00 19,1 12,8 13 7 19 10 W 1010,8 20 0 -
15.10.2018 19:00:00 19,8 12,7 11 6 18 10 W 1010,1 15 9 0,0
15.10.2018 18:00:00 20,8 13,0 13 7 32 17 WSW 1009,6 16 42 0,0
15.10.2018 17:00:00 21,8 12,1 19 10 33 18 WSW 1009,1 20 36 0,0
15.10.2018 16:00:00 21,6 14,0 16 8 37 20 WSW 1008,7 13 40 0,0
15.10.2018 15:00:00 22,1 12,6 22 12 41 22 WSW 1008,6 20 43 0,0
15.10.2018 14:00:00 21,9 13,3 19 10 48 26 W 1008,6 12 46 -
15.10.2018 13:00:00 22,1 12,6 - - - - - 1008,5 16 59 0,0
15.10.2018 12:00:00 21,4 12,7 31 17 52 28 W 1008,2 11 52 0,0
15.10.2018 11:00:00 21,1 12,7 32 17 54 29 WSW 1007,6 12 60 0,0
15.10.2018 10:00:00 20,6 12,8 22 12 40 22 WSW 1007,2 17 44 0,0
15.10.2018 09:00:00 19,1 11,9 18 10 34 19 WSW 1006,9 13 14 0,0
15.10.2018 08:00:00 19,1 13,1 17 9 44 24 WSW 1006,2 12 0 -
15.10.2018 07:00:00 19,4 13,6 22 12 61 33 WSW 1005,8 10 0 0,0
15.10.2018 06:00:00 19,6 15,3 32 17 48 26 SW 1005,2 9 0 0,0
15.10.2018 05:00:00 18,5 16,0 14 7 23 12 WSW 1005,9 7 0 0,0
15.10.2018 04:00:00 18,2 16,6 5 3 13 7 WSW 1005,8 3,5 0 0,0
15.10.2018 03:00:00 18,4 17,1 7 4 24 13 SSW 1006,3 7 0 0,0
15.10.2018 02:00:00 18,9 17,5 - - - - - 1006,2 8 0 -
15.10.2018 01:00:00 22,8 20,5 51 28 72 39 S 1005,5 5 0 0,0
15.10.2018 00:00:00 22,7 20,3 54 29 64 35 S 1005,8 7 0 0,0
14.10.2018 23:00:00 22,6 20,1 39 21 59 32 S 1005,8 7 0 0,0
14.10.2018 22:00:00 22,5 19,8 41 22 52 28 S 1007,2 9 0 0,2
14.10.2018 21:00:00 22,7 19,6 36 19 43 23 S 1007,8 10 0 0,0

tt = Température de l'air
td = dewpoint
ff = Vitesse du vent
fx = gusts
dd = Direction du vent
ppp = reduced air pressure
vv = visibility
sd = Ensoleillement
rr = Quantités de précipitations

stations d'obs. à proximité